Voltar ao catálogo

STARLINK-37788

AtivoComunicaçõesSSO
NORAD 69338·PAYLOAD·🇺🇸 United States

Lançado Jun 3, 2026 de Vandenberg Space Force Base

Loading…

Próximas Passagens (próximas 24 horas)

TLE

AtualizadoSource: CelesTrak SupGP

Época: Sep 14, 2026, 21:11 UTC

1 69338C 26122K   26257.88312500  .00001186  00000+0  36805-4 0  2579
2 69338  97.2824 286.5621 0001171  95.3241  33.3702 15.33436396    19

Acompanhe STARLINK-37788 em tempo real com AllMySat

Download on the App Store